When you browse on this site, cookies collect data to enhance your experience and personalize the content and advertising you see.
Visit our Privacy Policy to learn more. By continuing to use the site, you agree to this use of cookies and data.
  • In Austria
  • List of Countries
  • For 7 days
  • Water Temperature
  • Satellite Maps
  • Weather Map
  • News
  • Weather Widgets
  • user-avatar
    Login

    Hourly Weather Luanda

    Today, 17 November, Saturday

    Time Temperature Precipitation Wind Pressure Humidity
    00:00 +28°C° 0 mm 2 mps 754 mmHg 81%
    01:00 +28°C° 0 mm 1 mps 754 mmHg 82%
    02:00 +28°C° 0 mm 1 mps 754 mmHg 82%
    03:00 +28°C° 0 mm 1 mps 754 mmHg 82%
    04:00 +28°C° 0 mm 1 mps 753 mmHg 82%
    05:00 +28°C° 0 mm 1 mps 754 mmHg 81%
    06:00 +28°C° 0 mm 1 mps 754 mmHg 80%
    07:00 +28°C° 0 mm 1 mps 754 mmHg 79%
    08:00 +29°C° 0 mm 1 mps 754 mmHg 75%
    09:00 +30°C° 0 mm 1 mps 754 mmHg 71%
    10:00 +30°C° 0 mm 1 mps 755 mmHg 67%
    11:00 +31°C° 0 mm 2 mps 754 mmHg 63%
    12:00 +32°C° 0 mm 2 mps 753 mmHg 60%
    13:00 +34°C° 0 mm 3 mps 752 mmHg 56%
    14:00 +34°C° 0 mm 4 mps 752 mmHg 57%
    15:00 +34°C° 0 mm 4 mps 752 mmHg 58%
    16:00 +34°C° 0 mm 5 mps 752 mmHg 59%
    17:00 +32°C° 0 mm 4 mps 752 mmHg 65%
    18:00 +30°C° 0 mm 4 mps 752 mmHg 70%
    19:00 +29°C° 0 mm 4 mps 753 mmHg 75%
    20:00 +28°C° 0 mm 3 mps 753 mmHg 76%
    21:00 +28°C° 0 mm 3 mps 754 mmHg 78%
    22:00 +28°C° 0 mm 2 mps 754 mmHg 79%
    23:00 +28°C° 0.1 mm 2 mps 754 mmHg 80%

    Tomorrow, 18 November, Sunday

    Time Temperature Precipitation Wind Pressure Humidity
    00:00 +28°C° 0.1 mm 2 mps 754 mmHg 81%
    01:00 +28°C° 0.1 mm 2 mps 754 mmHg 82%
    02:00 +28°C° 0.4 mm 2 mps 754 mmHg 83%
    03:00 +27°C° 0.4 mm 2 mps 753 mmHg 84%
    04:00 +27°C° 0.4 mm 1 mps 753 mmHg 85%
    05:00 +28°C° 0 mm 1 mps 753 mmHg 83%
    06:00 +28°C° 0 mm 1 mps 754 mmHg 82%
    07:00 +28°C° 0 mm 1 mps 754 mmHg 81%
    08:00 +29°C° 0 mm 2 mps 754 mmHg 75%
    09:00 +30°C° 0 mm 2 mps 754 mmHg 69%
    10:00 +32°C° 0 mm 2 mps 754 mmHg 64%
    11:00 +33°C° 0 mm 3 mps 754 mmHg 61%
    12:00 +34°C° 0 mm 3 mps 753 mmHg 58%
    13:00 +35°C° 0 mm 4 mps 752 mmHg 56%
    14:00 +35°C° 0 mm 4 mps 752 mmHg 57%
    15:00 +34°C° 0 mm 4 mps 751 mmHg 58%
    16:00 +34°C° 0 mm 4 mps 750 mmHg 59%
    17:00 +33°C° 0 mm 4 mps 751 mmHg 64%
    18:00 +30°C° 0 mm 3 mps 752 mmHg 70%
    19:00 +29°C° 0 mm 3 mps 752 mmHg 76%
    20:00 +29°C° 0 mm 3 mps 753 mmHg 77%
    21:00 +29°C° 0 mm 2 mps 753 mmHg 78%
    22:00 +29°C° 0 mm 2 mps 753 mmHg 79%
    23:00 +28°C° 0 mm 2 mps 753 mmHg 80%

    Day after tomorrow, 19 November, Monday

    Time Temperature Precipitation Wind Pressure Humidity
    00:00 +28°C° 0 mm 2 mps 753 mmHg 81%
    01:00 +28°C° 0 mm 2 mps 753 mmHg 82%
    02:00 +28°C° 0 mm 2 mps 753 mmHg 83%
    03:00 +28°C° 0 mm 2 mps 753 mmHg 84%
    04:00 +28°C° 0 mm 2 mps 753 mmHg 85%
    05:00 +28°C° 0 mm 2 mps 753 mmHg 83%
    06:00 +28°C° 0 mm 2 mps 753 mmHg 81%
    07:00 +28°C° 0 mm 2 mps 754 mmHg 79%
    08:00 +30°C° 0 mm 2 mps 754 mmHg 72%
    09:00 +32°C° 0 mm 2 mps 754 mmHg 65%
    10:00 +34°C° 0 mm 2 mps 754 mmHg 58%
    11:00 +35°C° 0 mm 3 mps 753 mmHg 56%
    12:00 +36°C° 0 mm 4 mps 753 mmHg 54%
    13:00 +36°C° 0 mm 4 mps 752 mmHg 51%
    14:00 +35°C° 0.4 mm 4 mps 751 mmHg 55%
    15:00 +34°C° 0.4 mm 5 mps 751 mmHg 60%
    16:00 +34°C° 0.4 mm 5 mps 750 mmHg 64%
    17:00 +32°C° 0.4 mm 5 mps 751 mmHg 69%
    18:00 +30°C° 0.4 mm 4 mps 752 mmHg 75%
    19:00 +29°C° 0.4 mm 4 mps 752 mmHg 80%
    20:00 +28°C° 0.1 mm 4 mps 753 mmHg 81%
    21:00 +28°C° 0.1 mm 3 mps 753 mmHg 82%
    22:00 +28°C° 0.1 mm 3 mps 754 mmHg 83%
    23:00 +28°C° 0 mm 3 mps 754 mmHg 84%

    20 November, Tuesday

    Time Temperature Precipitation Wind Pressure Humidity
    00:00 +28°C° 0 mm 4 mps 753 mmHg 84%
    01:00 +28°C° 0 mm 4 mps 753 mmHg 85%
    02:00 +28°C° 0 mm 3 mps 753 mmHg 84%
    03:00 +28°C° 0 mm 3 mps 752 mmHg 84%
    04:00 +28°C° 0 mm 3 mps 752 mmHg 83%
    05:00 +28°C° 0.1 mm 3 mps 753 mmHg 82%
    06:00 +28°C° 0.1 mm 3 mps 753 mmHg 80%
    07:00 +28°C° 0.1 mm 3 mps 754 mmHg 79%
    08:00 +30°C° 0 mm 3 mps 754 mmHg 72%
    09:00 +31°C° 0 mm 2 mps 754 mmHg 66%
    10:00 +34°C° 0 mm 2 mps 754 mmHg 59%
    11:00 +35°C° 0 mm 3 mps 754 mmHg 55%
    12:00 +36°C° 0 mm 4 mps 753 mmHg 52%
    13:00 +37°C° 0 mm 4 mps 752 mmHg 48%
    14:00 +36°C° 0 mm 5 mps 752 mmHg 53%
    15:00 +35°C° 0 mm 5 mps 752 mmHg 57%
    16:00 +34°C° 0 mm 6 mps 751 mmHg 62%
    17:00 +32°C° 0.7 mm 5 mps 752 mmHg 68%
    18:00 +30°C° 0.7 mm 5 mps 753 mmHg 75%
    19:00 +28°C° 0.7 mm 4 mps 753 mmHg 81%
    20:00 +28°C° 0.5 mm 4 mps 754 mmHg 82%
    21:00 +28°C° 0.5 mm 3 mps 754 mmHg 83%
    22:00 +28°C° 0.5 mm 3 mps 754 mmHg 84%
    23:00 +28°C° 0 mm 3 mps 754 mmHg 84%

    21 November, Wednesday

    Time Temperature Precipitation Wind Pressure Humidity
    00:00 +28°C° 0 mm 3 mps 753 mmHg 85%
    01:00 +28°C° 0 mm 3 mps 753 mmHg 85%
    02:00 +27°C° 0.1 mm 4 mps 753 mmHg 86%
    03:00 +27°C° 0.1 mm 4 mps 752 mmHg 86%
    04:00 +27°C° 0.1 mm 4 mps 752 mmHg 87%
    05:00 +27°C° 0.2 mm 3 mps 753 mmHg 86%
    06:00 +27°C° 0.2 mm 3 mps 753 mmHg 86%
    07:00 +27°C° 0.2 mm 3 mps 754 mmHg 85%
    08:00 +29°C° 0 mm 2 mps 754 mmHg 78%
    09:00 +30°C° 0 mm 2 mps 754 mmHg 71%
    10:00 +32°C° 0 mm 2 mps 754 mmHg 64%
    11:00 +34°C° 0 mm 2 mps 753 mmHg 60%
    12:00 +35°C° 0 mm 3 mps 752 mmHg 55%
    13:00 +36°C° 0 mm 3 mps 752 mmHg 50%
    14:00 +36°C° 0 mm 3 mps 751 mmHg 52%
    15:00 +35°C° 0 mm 4 mps 751 mmHg 54%
    16:00 +35°C° 0 mm 4 mps 751 mmHg 57%
    17:00 +33°C° 0 mm 4 mps 751 mmHg 64%
    18:00 +30°C° 0 mm 4 mps 752 mmHg 70%
    19:00 +29°C° 0 mm 4 mps 752 mmHg 77%
    20:00 +29°C° 0 mm 4 mps 753 mmHg 79%
    21:00 +28°C° 0 mm 4 mps 753 mmHg 80%
    22:00 +28°C° 0 mm 4 mps 753 mmHg 81%
    23:00 +28°C° 0 mm 3 mps 753 mmHg 82%

    22 November, Thursday

    Time Temperature Precipitation Wind Pressure Humidity
    00:00 +28°C° 0 mm 3 mps 753 mmHg 83%
    01:00 +27°C° 0 mm 3 mps 752 mmHg 85%
    02:00 +27°C° 0 mm 3 mps 752 mmHg 85%
    03:00 +27°C° 0 mm 3 mps 752 mmHg 85%
    04:00 +27°C° 0 mm 3 mps 752 mmHg 85%
    05:00 +27°C° 0.2 mm 2 mps 753 mmHg 85%
    06:00 +27°C° 0.2 mm 2 mps 753 mmHg 84%
    07:00 +27°C° 0.2 mm 2 mps 754 mmHg 84%
    08:00 +28°C° 0.2 mm 2 mps 754 mmHg 82%
    09:00 +28°C° 0.2 mm 1 mps 754 mmHg 79%
    10:00 +29°C° 0.2 mm 1 mps 754 mmHg 77%
    11:00 +30°C° 0.1 mm 2 mps 753 mmHg 72%
    12:00 +31°C° 0.1 mm 2 mps 753 mmHg 67%
    13:00 +32°C° 0.1 mm 2 mps 752 mmHg 62%
    14:00 +33°C° 0 mm 3 mps 752 mmHg 62%
    15:00 +31°C° 0 mm 3 mps 751 mmHg 63%
    16:00 +31°C° 0 mm 3 mps 751 mmHg 63%
    17:00 +30°C° 0 mm 3 mps 751 mmHg 68%
    18:00 +29°C° 0 mm 3 mps 752 mmHg 73%
    19:00 +28°C° 0 mm 3 mps 753 mmHg 77%
    20:00 +28°C° 0 mm 3 mps 753 mmHg 79%
    21:00 +28°C° 0 mm 3 mps 753 mmHg 81%
    22:00 +27°C° 0 mm 2 mps 753 mmHg 83%
    23:00 +27°C° 0 mm 2 mps 753 mmHg 85%
    Show more